Racecast

Andrew Belli

Bloom-Carroll (OH) · 12 · MID STATEOH D2District XC · Compare head to head

Athlete rating 111.3 2020 XC season
Best race 127.0 TF
Races 49
Seasons 6 2015 — 2020

RankedNation #42132·OH #2462·OH D2 #999·MID STATE #35·Team #9 ?

Rating scale ?
Speed rating — all races

Cross Country

XC speed rating

2020 XC 110.3

Bloom-Carroll (OH) · Grade 12

Date Meet Event Result Place Rating Difficulty PR/SR Flags
2020-09-19 Camp Bobcat - Grandview Hts. 5000m 19:41.4 28th · 10th on team 108.7 +0.036 ★CR CSR
2020-09-05 Circleville HS 5000m 19:01.7 23rd · 6th on team 111.9 +0.013 ★CR SR CSR RSR

2019 XC 108.0

Bloom-Carroll (OH) · Grade 11

Date Meet Event Result Place Rating Difficulty PR/SR Flags
2019-11-16 Laverne Gibson Course 5000m 19:10.4 772nd · 9th on team 110.9 +0.029 ★CR CSR RSR
2019-09-21 Dublin Jerome 5000m 18:53.3 124th · 6th on team 106.8 -0.020 ★CR SR CSR RSR
2019-09-07 Watkins-Memorial HS 5000m 19:18.7 115th · 4th on team 106.5 +0.002 SR CSR RSR

2018 XC 100.0

Bloom-Carroll (OH) · Grade 10

Date Meet Event Result Place Rating Difficulty PR/SR Flags
2018-10-13 Circleville HS 5000m 19:58.5 15th · 4th on team 105.1 +0.013 CR SR CSR RSR
2018-10-06 Marion Harding HS 5000m 21:34.8 172nd · 10th on team 96.9 -0.002 CSR
2018-09-22 Lancaster HS 5000m 20:15.3 78th · 10th on team 104.7 +0.026 ★CR SR CSR RSR
2018-09-08 Watkins-Memorial HS 5000m 22:42.7 186th · 12th on team 93.5 +0.002 SR CSR RSR

2017 XC 105.1

Bloom-Carroll (OH) · Grade 9

Date Meet Event Result Place Rating Difficulty PR/SR Flags
2017-11-12 Laverne Gibson Course 5000m 20:26.7 241st · 4th on team 102.9 +0.029 CR CSR
2017-10-21 Watkins-Memorial HS 5000m 18:47.6 37th · 6th on team 110.5 +0.002 ★PR ★CR SR CSR RSR
2017-10-07 Marion Harding HS 5000m 19:29.7 121st · 7th on team 106.3 -0.002 ★CR CSR RSR
2017-09-30 Pickerington North HS 5000m 19:50.1 152nd · 8th on team 104.8 +0.016 ★CR CSR
2017-09-23 Lancaster High School 5000m 21:21.2 97th · 6th on team 100.6 +0.026 ★CR CSR
2017-09-16 Ammans Park 5000m 19:31.1 135th · 5th on team 105.4 -0.008 ★CR CSR RSR
2017-09-02 Ohio Christian University 5000m 19:18.7 60th · 5th on team 105.1 +0.009 PR ★CR SR CSR RSR

2016 XC 121.9

Bloom-Carroll (OH) · Grade 8

Date Meet Event Result Place Rating Difficulty PR/SR Flags
2016-10-01 Pickerington North HS 3200m 12:38.8 72nd · 3rd on team 121.9 +0.029 ★PR ★CR R SR CSR RSR
2016-09-24 Ohio University-Lancaster Campus 2000m 13:17.2 54th · 3rd on team ★PR ★CR SR CSR

2015 XC

Bloom-Carroll (OH) · Grade 7

Date Meet Event Result Place Rating Difficulty PR/SR Flags
2015-09-26 Invitational Course 1931m 14:36 91st · 4th on team ★PR ★CR SR CSR

Track & Field

TF speed rating

2019 TF 106.9

Bloom-Carroll (OH) · Grade 10

Date Meet Event Result Place Rating Difficulty PR/SR Flags
2019-05-09 MSL Buckeye JV Meet 1600m 5:22 2nd · 2nd on team 107.8 -0.026
2019-05-04 Mount Gilead Indian Invitational 3200m 11:43.45 12th · 2nd on team 105.8 -0.030
2019-05-01 BC-CA Dual 800m 2:22.7 9th · 6th on team 108.0 -0.026
2019-04-26 Millersport Laker Invitational 3200m 11:39.88 5th · 2nd on team 107.3 -0.026
2019-04-24 BC-BU-CSG-NY Quad 1600m 5:19.3 4th · 3rd on team 107.7 -0.026 SR
2019-04-16 BC-Fair-Lon-Mech Quad 800m 2:22 7th · 7th on team 107.8 -0.030
2019-04-13 Hank Smith Invitational 3200m 11:29.6 15th · 2nd on team 107.3 -0.034 ★PR SR
2019-04-06 Fairfield Union Falcon Invitational 800m 2:21.08 13th · 2nd on team 107.4 -0.033
2019-04-02 Logan Elm/Bloom Carroll Dual 800m 2:19.12 2nd · 2nd on team 110.1 -0.026 ★PR SR RSR
2019-03-30 Circleville Relays 1600m 5:26.9 5th · 5th on team 105.6 -0.028 SR RSR
2019-03-26 AC-BC Dual 3200m 12:09.5 3rd · 3rd on team 101.6 -0.031 SR RSR

2018 TF 103.8

Bloom-Carroll (OH) · Grade 9

Date Meet Event Result Place Rating Difficulty PR/SR Flags
2018-05-10 MSL Buckeye JV Meet 800m 2:30 1st · 1st on team 102.8 -0.026
2018-05-10 MSL Buckeye JV Meet 1600m 5:23.5 1st · 1st on team 107.2 -0.026 RSR
2018-05-05 MG Distance 3200m 11:58 2nd · 2nd on team 103.4 -0.026
2018-05-05 Mt. Gilead Invitational 1600m 5:19.2 11th · 2nd on team 107.1 -0.030 ★PR SR
2018-05-01 BC-HP-LO Tri 800m 2:36.9 5th · 5th on team 97.0 -0.030
2018-05-01 BC-HP-LO Tri 1600m 5:20.4 3rd · 2nd on team 107.2 -0.030 PR SR RSR
2018-04-24 BC/BU/NY Tri 3200m 11:48.2 3rd · 3rd on team 105.2 -0.031 PR SR
2018-04-05 BC-BX-FU Tri 800m 2:26.4 5th · 3rd on team 104.7 -0.030 PR SR
2018-04-05 BC-BX-FU Tri 1600m 5:27.3 6th · 2nd on team 105.2 -0.030 SR RSR
2018-02-25 Central District Division 2-3 Championship 1600m 5:31.43 14th · 1st on team 104.9 -0.027 SR RSR
2018-01-28 Capital University HS Meet 1600m 5:57.25 35th · 4th on team 97.3 -0.027 SR RSR

2017 TF 122.3

Bloom-Carroll (OH) · Grade 8

Date Meet Event Result Place Rating Difficulty PR/SR Flags
2017-05-04 MSL-Buckeye Division 1600m 5:26.1 5th · 1st on team 124.2 -0.028
2017-05-04 MSL-Buckeye Division 800m 3:26.17 18th · 2nd on team -0.028
2017-04-27 BC/CW Dual 1600m 5:21.3 2nd · 1st on team 127.0 -0.026 PR ★R SR RSR
2017-04-27 BC/CW Dual 800m 2:28.9 2nd · 1st on team 123.9 -0.026
2017-04-24 HT/BC/TVE Tri 800m 2:28.81 2nd · 1st on team 123.0 -0.026 PR R SR RSR
2017-04-24 HT/BC/TVE Tri 1600m 5:37.53 2nd · 2nd on team 120.1 -0.026 PR SR
2017-03-27 BC/BU Dual 800m 2:32.9 2nd · 2nd on team 119.6 -0.026 PR SR RSR
2017-03-27 BC/BU Dual 1600m 5:42.4 1st · 1st on team 118.2 -0.026 PR SR